Las Cruces, NM

5:47 PM MST on December 17, 2017 (GMT -0700)
Las Cruces International

Weather History for KLRU - October, 2013

Change the Weather History Date:

Wednesday, October 23, 2013

  Actual Average Record
Temperature  
Mean Temperature 56 °F -  
Max Temperature 74 °F 69 °F 84 °F (2003)
Min Temperature 37 °F 47 °F 28 °F (1996)
Degree Days  
Heating Degree Days 10    
Growing Degree Days 6 (Base 50)    
Moisture  
Dew Point 29 °F    
Average Humidity 37    
Maximum Humidity 61    
Minimum Humidity 20    
Precipitation  
Precipitation 0.00 in - - ()
Sea Level Pressure  
Sea Level Pressure 30.17 in    
Wind  
Wind Speed 3 mph (East)    
Max Wind Speed 9 mph    
Max Gust Speed 10 mph    
Visibility 10 miles    
Events      
Averages and records for this station are not official NWS values.
T = Trace of Precipitation, MM = Missing Value Source: NWS Daily Summary

Daily Weather History Graph

Daily Weather History Graph

Search for Another Location

Airport or City:

Trip Planner

Search our weather history database for the weather conditions in past years. The results will help you decide how hot, cold, wet, or windy it might be!

Date:

Astronomy

Oct. 23, 2013 Rise Set
Actual Time 7:17 AM MDT 6:25 PM MDT
Civil Twilight 6:52 AM MDT 6:50 PM MDT
Nautical Twilight 6:23 AM MDT 7:19 PM MDT
Astronomical Twilight 5:55 AM MDT 7:47 PM MDT
Moon 10:07 PM MDT (10/23) 11:28 AM MDT (10/23)
Length of Visible Light 11h 58m
Length of Day
11h 08m
Waning Gibbous, 79% of the Moon is Illuminated
Oct 23
Waning Gibbous
Oct 26
Last Quarter
Nov 3
New
Nov 9
First Quarter
Nov 17
Full

Hourly Weather History & Observations

Time (MDT) Temp. Windchill Dew Point Humidity Pressure Visibility Wind Dir Wind Speed Gust Speed Precip Events Conditions
12:15 AM 44.1 °F - 24.4 °F 46% 30.20 in 10.0 mi Calm Calm - N/A   Clear
12:35 AM 43.5 °F - 24.6 °F 47% 30.19 in 10.0 mi Calm Calm - N/A   Clear
12:55 AM 43.5 °F - 24.8 °F 48% 30.19 in 10.0 mi Calm Calm - N/A   Clear
1:15 AM 42.1 °F 39.2 °F 24.4 °F 50% 30.19 in 10.0 mi NE 4.6 mph - N/A   Clear
1:35 AM 46.0 °F 44.8 °F 25.5 °F 45% 30.19 in 10.0 mi NE 3.5 mph - N/A   Clear
1:55 AM 42.4 °F 40.7 °F 24.6 °F 49% 30.19 in 10.0 mi ENE 3.5 mph - N/A   Clear
2:15 AM 43.2 °F - 25.0 °F 49% 30.19 in 10.0 mi Calm Calm - N/A   Clear
2:35 AM 43.5 °F 41.9 °F 24.6 °F 47% 30.19 in 10.0 mi SW 3.5 mph - N/A   Clear
2:55 AM 40.8 °F - 23.9 °F 51% 30.19 in 10.0 mi Calm Calm - N/A   Clear
3:15 AM 39.4 °F - 22.8 °F 52% 30.19 in 10.0 mi Calm Calm - N/A   Clear
3:35 AM 39.2 °F - 22.5 °F 51% 30.19 in 10.0 mi Calm Calm - N/A   Clear
3:55 AM 39.2 °F - 22.8 °F 52% 30.19 in 10.0 mi Calm Calm - N/A   Clear
4:15 AM 39.2 °F - 23.2 °F 53% 30.19 in 10.0 mi Calm Calm - N/A   Clear
4:35 AM 39.6 °F - 23.9 °F 54% 30.18 in 10.0 mi Calm Calm - N/A   Clear
4:55 AM 38.7 °F - 23.7 °F 55% 30.18 in 10.0 mi Calm Calm - N/A   Clear
5:15 AM 38.5 °F - 23.9 °F 56% 30.19 in 10.0 mi Calm Calm - N/A   Clear
5:35 AM 37.8 °F 35.3 °F 23.9 °F 57% 30.19 in 10.0 mi NW 3.5 mph - N/A   Clear
5:55 AM 38.5 °F 35.0 °F 24.4 °F 57% 30.19 in 10.0 mi NW 4.6 mph - N/A   Clear
6:15 AM 38.5 °F 36.1 °F 25.3 °F 59% 30.20 in 10.0 mi North 3.5 mph - N/A   Clear
6:35 AM 39.0 °F - 25.7 °F 59% 30.20 in 10.0 mi Calm Calm - N/A   Clear
6:55 AM 39.4 °F 37.2 °F 26.2 °F 59% 30.20 in 10.0 mi NNE 3.5 mph - N/A   Clear
7:15 AM 39.4 °F 37.2 °F 26.1 °F 59% 30.20 in 10.0 mi NE 3.5 mph - N/A   Clear
7:35 AM 38.3 °F 35.9 °F 25.7 °F 61% 30.20 in 10.0 mi North 3.5 mph - N/A   Clear
7:55 AM 41.9 °F 38.2 °F 26.6 °F 55% 30.20 in 10.0 mi NW 5.8 mph - N/A   Clear
8:15 AM 46.9 °F - 27.5 °F 47% 30.21 in 10.0 mi Calm Calm - N/A   Clear
8:35 AM 52.0 °F - 28.9 °F 41% 30.21 in 10.0 mi Calm Calm - N/A   Clear
8:55 AM 55.2 °F - 29.5 °F 37% 30.22 in 10.0 mi Calm Calm - N/A   Clear
9:15 AM 59.5 °F - 30.0 °F 33% 30.23 in 10.0 mi Calm Calm - N/A   Clear
9:35 AM 61.0 °F - 29.8 °F 31% 30.23 in 10.0 mi East 3.5 mph - N/A   Clear
9:55 AM 62.1 °F - 30.2 °F 30% 30.23 in 10.0 mi East 6.9 mph - N/A   Clear
10:15 AM 62.6 °F - 30.4 °F 30% 30.23 in 10.0 mi East 5.8 mph - N/A   Clear
10:35 AM 63.3 °F - 30.4 °F 29% 30.22 in 10.0 mi East 8.1 mph - N/A   Clear
10:55 AM 63.9 °F - 30.9 °F 29% 30.23 in 10.0 mi East 4.6 mph - N/A   Clear
11:15 AM 64.4 °F - 31.8 °F 30% 30.23 in 10.0 mi East 4.6 mph - N/A   Clear
11:35 AM 67.1 °F - 31.8 °F 27% 30.23 in 10.0 mi SE 4.6 mph - N/A   Clear
11:55 AM 67.3 °F - 31.8 °F 27% 30.22 in 10.0 mi SE 4.6 mph - N/A   Clear
12:15 PM 68.4 °F - 32.0 °F 26% 30.21 in 10.0 mi East 3.5 mph - N/A   Clear
12:35 PM 70.2 °F - 32.0 °F 24% 30.20 in 10.0 mi ESE 6.9 mph - N/A   Clear
12:55 PM 71.4 °F - 32.0 °F 23% 30.19 in 10.0 mi SE 4.6 mph - N/A   Clear
1:15 PM 72.3 °F - 30.2 °F 21% 30.18 in 10.0 mi SE 5.8 mph - N/A   Clear
1:35 PM 73.4 °F - 30.6 °F 21% 30.16 in 10.0 mi SE 6.9 mph - N/A   Clear
1:55 PM 73.4 °F - 30.9 °F 21% 30.15 in 10.0 mi ESE 9.2 mph - N/A   Clear
2:15 PM 74.1 °F - 30.2 °F 20% 30.15 in 10.0 mi ESE 4.6 mph 10.4 mph N/A   Clear
2:35 PM 74.7 °F - 30.9 °F 20% 30.14 in 10.0 mi SE 6.9 mph - N/A   Clear
2:55 PM 74.5 °F - 32.0 °F 21% 30.14 in 10.0 mi SSW 3.5 mph - N/A   Clear
3:15 PM 74.1 °F - 32.0 °F 21% 30.13 in 10.0 mi SE 5.8 mph - N/A   Clear
3:35 PM 74.7 °F - 32.0 °F 21% 30.12 in 10.0 mi SSE 8.1 mph - N/A   Clear
3:55 PM 74.8 °F - 31.5 °F 20% 30.12 in 10.0 mi Calm Calm - N/A   Clear
4:15 PM 74.7 °F - 31.3 °F 20% 30.12 in 10.0 mi SSE 4.6 mph - N/A   Clear
4:35 PM 74.7 °F - 31.1 °F 20% 30.12 in 10.0 mi South 3.5 mph - N/A   Clear
4:55 PM 74.7 °F - 31.5 °F 20% 30.12 in 10.0 mi SSE 9.2 mph - N/A   Clear
5:15 PM 74.1 °F - 31.3 °F 21% 30.11 in 10.0 mi SE 5.8 mph - N/A   Clear
5:35 PM 73.4 °F - 31.5 °F 21% 30.12 in 10.0 mi South 5.8 mph - N/A   Clear
5:55 PM 72.5 °F - 31.6 °F 22% 30.12 in 10.0 mi Calm Calm - N/A   Clear
6:15 PM 68.7 °F - 31.6 °F 25% 30.12 in 10.0 mi Calm Calm - N/A   Clear
6:35 PM 65.8 °F - 31.1 °F 27% 30.12 in 10.0 mi East 3.5 mph - N/A   Clear
6:55 PM 63.7 °F - 32.0 °F 31% 30.12 in 10.0 mi East 4.6 mph - N/A   Clear
7:15 PM 63.5 °F - 32.0 °F 31% 30.12 in 10.0 mi ESE 4.6 mph - N/A   Clear
7:35 PM 63.1 °F - 32.0 °F 31% 30.12 in 10.0 mi ESE 4.6 mph - N/A   Clear
7:55 PM 62.6 °F - 30.9 °F 30% 30.13 in 10.0 mi ESE 3.5 mph - N/A   Clear
8:15 PM 60.3 °F - 30.2 °F 32% 30.13 in 10.0 mi East 4.6 mph - N/A   Clear
8:35 PM 62.4 °F - 31.8 °F 32% 30.13 in 10.0 mi ENE 4.6 mph - N/A   Clear
8:55 PM 60.8 °F - 31.8 °F 34% 30.13 in 10.0 mi ENE 4.6 mph - N/A   Clear
9:15 PM 60.8 °F - 32.0 °F 34% 30.13 in 10.0 mi ENE 4.6 mph - N/A   Clear
9:35 PM 61.0 °F - 32.0 °F 34% 30.13 in 10.0 mi NE 5.8 mph - N/A   Clear
9:55 PM 61.5 °F - 32.0 °F 33% 30.14 in 10.0 mi NE 5.8 mph - N/A   Clear
10:15 PM 61.7 °F - 31.8 °F 33% 30.14 in 10.0 mi ENE 4.6 mph - N/A   Clear
10:35 PM 59.9 °F - 31.1 °F 34% 30.15 in 10.0 mi ENE 3.5 mph - N/A   Clear
10:55 PM 53.8 °F - 30.6 °F 41% 30.15 in 10.0 mi NE 3.5 mph - N/A   Clear
11:15 PM 53.6 °F - 30.2 °F 41% 30.15 in 10.0 mi NNE 3.5 mph - N/A   Clear
11:35 PM 53.8 °F - 30.7 °F 41% 30.15 in 10.0 mi North 3.5 mph - N/A   Clear
11:55 PM 61.0 °F - 31.3 °F 33% 30.15 in 10.0 mi SE 8.1 mph - N/A   Clear